Year,Month,Day,Hour,Minute,Value (Times are PST for windgust in km/hr)
2015,08,27,00,07,1.60
2015,08,27,00,08,1.60
2015,08,27,00,11,6.40
2015,08,27,00,12,6.40
2015,08,27,00,13,6.40
2015,08,27,00,14,3.20
2015,08,27,00,22,1.60
2015,08,27,00,24,1.60
2015,08,27,00,27,1.60
2015,08,27,00,30,1.60
2015,08,27,00,45,1.60
2015,08,27,00,48,3.20
2015,08,27,00,49,3.20
2015,08,27,00,50,3.20
2015,08,27,00,53,1.60
2015,08,27,00,55,1.60
2015,08,27,01,04,1.60
2015,08,27,01,07,1.60
2015,08,27,01,13,1.60
2015,08,27,01,14,3.20
2015,08,27,01,15,3.20
2015,08,27,01,16,3.20
2015,08,27,01,17,1.60
2015,08,27,01,18,1.60
2015,08,27,01,21,1.60
2015,08,27,02,12,3.20
2015,08,27,02,13,3.20
2015,08,27,02,14,3.20
2015,08,27,02,18,1.60
2015,08,27,02,26,1.60
2015,08,27,02,35,1.60
2015,08,27,03,00,1.60
2015,08,27,03,01,3.20
2015,08,27,03,02,1.60
2015,08,27,03,03,1.60
2015,08,27,03,05,1.60
2015,08,27,03,08,1.60
2015,08,27,03,15,3.20
2015,08,27,03,16,3.20
2015,08,27,03,17,3.20
2015,08,27,03,20,1.60
2015,08,27,03,26,1.60
2015,08,27,03,33,1.60
2015,08,27,03,34,1.60
2015,08,27,03,39,1.60
2015,08,27,03,40,1.60
2015,08,27,03,41,1.60
2015,08,27,03,43,1.60
2015,08,27,03,45,1.60
2015,08,27,03,48,1.60
2015,08,27,03,53,1.60
2015,08,27,04,18,1.60
2015,08,27,04,19,1.60
2015,08,27,04,33,1.60
2015,08,27,04,34,3.20
2015,08,27,04,35,3.20
2015,08,27,04,36,1.60
2015,08,27,04,43,1.60
2015,08,27,04,45,1.60
2015,08,27,04,46,1.60
2015,08,27,04,55,1.60
2015,08,27,04,56,1.60
2015,08,27,05,01,1.60
2015,08,27,05,04,1.60
2015,08,27,05,05,3.20
2015,08,27,05,06,3.20
2015,08,27,05,14,1.60
2015,08,27,05,16,6.40
2015,08,27,05,17,3.20
2015,08,27,05,21,1.60
2015,08,27,05,25,1.60
2015,08,27,05,47,1.60
2015,08,27,05,48,3.20
2015,08,27,05,49,3.20
2015,08,27,06,13,1.60
2015,08,27,06,14,6.40
2015,08,27,06,15,3.20
2015,08,27,06,43,3.20
2015,08,27,06,44,3.20
2015,08,27,06,45,3.20
2015,08,27,06,46,1.60
2015,08,27,06,48,3.20
2015,08,27,06,49,1.60
2015,08,27,06,50,3.20
2015,08,27,06,51,3.20
2015,08,27,06,52,1.60
2015,08,27,06,54,1.60
2015,08,27,07,01,1.60
2015,08,27,07,05,1.60
2015,08,27,07,06,1.60
2015,08,27,07,08,1.60
2015,08,27,07,09,8.10
2015,08,27,07,10,3.20
2015,08,27,07,11,8.10
2015,08,27,07,12,6.40
2015,08,27,07,13,1.60
2015,08,27,07,15,6.40
2015,08,27,07,16,3.20
2015,08,27,07,17,6.40
2015,08,27,07,18,6.40
2015,08,27,07,19,1.60
2015,08,27,07,26,1.60
2015,08,27,07,27,6.40
2015,08,27,07,28,1.60
2015,08,27,07,29,3.20
2015,08,27,07,32,1.60
2015,08,27,07,34,1.60
2015,08,27,07,38,3.20
2015,08,27,07,41,1.60
2015,08,27,07,46,1.60
2015,08,27,07,48,1.60
2015,08,27,07,58,1.60
2015,08,27,08,00,1.60
2015,08,27,08,07,1.60
2015,08,27,08,08,3.20
2015,08,27,08,09,1.60
2015,08,27,08,11,1.60
2015,08,27,08,20,3.20
2015,08,27,08,32,1.60
2015,08,27,08,47,1.60
2015,08,27,08,48,3.20
2015,08,27,08,49,3.20
2015,08,27,08,51,1.60
2015,08,27,08,53,1.60
2015,08,27,08,55,1.60
2015,08,27,08,58,1.60
2015,08,27,09,19,1.60
2015,08,27,09,20,3.20
2015,08,27,09,22,1.60
2015,08,27,09,24,1.60
2015,08,27,09,26,1.60
2015,08,27,09,28,1.60
2015,08,27,09,29,4.80
2015,08,27,09,32,1.60
2015,08,27,09,33,3.20
2015,08,27,09,34,3.20
2015,08,27,09,37,1.60
2015,08,27,09,42,1.60
2015,08,27,09,43,1.60
2015,08,27,09,44,3.20
2015,08,27,09,45,1.60
2015,08,27,09,51,1.60
2015,08,27,09,54,4.80
2015,08,27,09,55,3.20
2015,08,27,09,56,1.60
2015,08,27,09,57,1.60
2015,08,27,09,58,1.60
2015,08,27,09,59,1.60
2015,08,27,10,01,1.60
2015,08,27,10,02,3.20
2015,08,27,10,09,1.60
2015,08,27,10,11,3.20
2015,08,27,10,12,1.60
2015,08,27,10,13,1.60
2015,08,27,10,15,1.60
2015,08,27,10,16,1.60
2015,08,27,10,17,1.60
2015,08,27,10,19,1.60
2015,08,27,10,20,1.60
2015,08,27,10,21,1.60
2015,08,27,10,22,4.80
2015,08,27,10,23,1.60
2015,08,27,10,25,4.80
2015,08,27,10,26,6.40
2015,08,27,10,27,6.40
2015,08,27,10,28,4.80
2015,08,27,10,29,4.80
2015,08,27,10,32,1.60
2015,08,27,10,33,1.60
2015,08,27,10,37,1.60
2015,08,27,10,39,1.60
2015,08,27,10,42,1.60
2015,08,27,10,43,1.60
2015,08,27,10,44,1.60
2015,08,27,10,46,1.60
2015,08,27,10,47,1.60
2015,08,27,10,49,1.60
2015,08,27,10,50,1.60
2015,08,27,10,52,1.60
2015,08,27,10,53,1.60
2015,08,27,10,57,1.60
2015,08,27,11,00,1.60
2015,08,27,11,01,1.60
2015,08,27,11,02,4.80
2015,08,27,11,04,1.60
2015,08,27,11,05,1.60
2015,08,27,11,07,1.60
2015,08,27,11,09,1.60
2015,08,27,11,11,1.60
2015,08,27,11,12,3.20
2015,08,27,11,13,1.60
2015,08,27,11,14,3.20
2015,08,27,11,15,3.20
2015,08,27,11,17,1.60
2015,08,27,11,18,3.20
2015,08,27,11,19,9.60
2015,08,27,11,20,9.60
2015,08,27,11,21,9.60
2015,08,27,11,22,8.10
2015,08,27,11,23,9.60
2015,08,27,11,24,8.10
2015,08,27,11,25,9.60
2015,08,27,11,26,9.60
2015,08,27,11,27,6.40
2015,08,27,11,28,6.40
2015,08,27,11,29,8.10
2015,08,27,11,30,3.20
2015,08,27,11,31,8.10
2015,08,27,11,32,4.80
2015,08,27,11,33,1.60
2015,08,27,11,34,6.40
2015,08,27,11,35,4.80
2015,08,27,11,37,1.60
2015,08,27,11,38,4.80
2015,08,27,11,39,8.10
2015,08,27,11,40,4.80
2015,08,27,11,41,8.10
2015,08,27,11,42,6.40
2015,08,27,11,44,6.40
2015,08,27,11,45,1.60
2015,08,27,11,46,6.40
2015,08,27,11,47,1.60
2015,08,27,11,48,1.60
2015,08,27,11,49,6.40
2015,08,27,11,50,6.40
2015,08,27,11,51,1.60
2015,08,27,11,53,1.60
2015,08,27,11,54,3.20
2015,08,27,11,55,4.80
2015,08,27,11,57,1.60
2015,08,27,11,58,1.60
2015,08,27,12,01,1.60
2015,08,27,12,02,6.40
2015,08,27,12,03,6.40
2015,08,27,12,04,8.10
2015,08,27,12,05,12.90
2015,08,27,12,06,9.60
2015,08,27,12,07,9.60
2015,08,27,12,08,12.90
2015,08,27,12,09,11.30
2015,08,27,12,10,9.60
2015,08,27,12,11,8.10
2015,08,27,12,12,8.10
2015,08,27,12,13,8.10
2015,08,27,12,14,3.20
2015,08,27,12,15,4.80
2015,08,27,12,16,6.40
2015,08,27,12,17,8.10
2015,08,27,12,18,6.40
2015,08,27,12,19,8.10
2015,08,27,12,20,11.30
2015,08,27,12,21,8.10
2015,08,27,12,22,11.30
2015,08,27,12,23,12.90
2015,08,27,12,24,14.50
2015,08,27,12,25,11.30
2015,08,27,12,26,12.90
2015,08,27,12,27,12.90
2015,08,27,12,28,12.90
2015,08,27,12,29,11.30
2015,08,27,12,30,11.30
2015,08,27,12,31,16.10
2015,08,27,12,32,16.10
2015,08,27,12,33,14.50
2015,08,27,12,34,11.30
2015,08,27,12,35,9.60
2015,08,27,12,36,11.30
2015,08,27,12,37,11.30
2015,08,27,12,38,11.30
2015,08,27,12,39,12.90
2015,08,27,12,40,12.90
2015,08,27,12,41,12.90
2015,08,27,12,42,12.90
2015,08,27,12,43,12.90
2015,08,27,12,44,11.30
2015,08,27,12,45,8.10
2015,08,27,12,46,11.30
2015,08,27,12,47,14.50
2015,08,27,12,48,12.90
2015,08,27,12,49,12.90
2015,08,27,12,50,12.90
2015,08,27,12,51,9.60
2015,08,27,12,52,12.90
2015,08,27,12,53,11.30
2015,08,27,12,54,11.30
2015,08,27,12,55,14.50
2015,08,27,12,56,16.10
2015,08,27,12,57,14.50
2015,08,27,12,58,12.90
2015,08,27,12,59,9.60
2015,08,27,13,00,9.60
2015,08,27,13,01,12.90
2015,08,27,13,02,11.30
2015,08,27,13,03,19.30
2015,08,27,13,04,12.90
2015,08,27,13,05,8.10
2015,08,27,13,06,8.10
2015,08,27,13,07,8.10
2015,08,27,13,08,8.10
2015,08,27,13,09,14.50
2015,08,27,13,10,11.30
2015,08,27,13,11,12.90
2015,08,27,13,12,6.40
2015,08,27,13,13,11.30
2015,08,27,13,14,11.30
2015,08,27,13,15,6.40
2015,08,27,13,16,6.40
2015,08,27,13,17,9.60
2015,08,27,13,18,11.30
2015,08,27,13,19,11.30
2015,08,27,13,20,8.10
2015,08,27,13,21,12.90
2015,08,27,13,22,9.60
2015,08,27,13,23,9.60
2015,08,27,13,24,8.10
2015,08,27,13,25,8.10
2015,08,27,13,26,9.60
2015,08,27,13,27,4.80
2015,08,27,13,28,9.60
2015,08,27,13,29,11.30
2015,08,27,13,30,9.60
2015,08,27,13,31,11.30
2015,08,27,13,32,14.50
2015,08,27,13,33,11.30
2015,08,27,13,34,8.10
2015,08,27,13,35,9.60
2015,08,27,13,36,11.30
2015,08,27,13,37,8.10
2015,08,27,13,38,9.60
2015,08,27,13,39,11.30
2015,08,27,13,40,11.30
2015,08,27,13,41,12.90
2015,08,27,13,42,11.30
2015,08,27,13,43,11.30
2015,08,27,13,44,11.30
2015,08,27,13,45,9.60
2015,08,27,13,46,4.80
2015,08,27,13,47,12.90
2015,08,27,13,48,9.60
2015,08,27,13,49,9.60
2015,08,27,13,50,12.90
2015,08,27,13,51,6.40
2015,08,27,13,52,8.10
2015,08,27,13,53,11.30
2015,08,27,13,54,11.30
2015,08,27,13,55,9.60
2015,08,27,13,56,4.80
2015,08,27,13,57,1.60
2015,08,27,13,58,4.80
2015,08,27,13,59,4.80
2015,08,27,14,00,6.40
2015,08,27,14,01,4.80
2015,08,27,14,02,4.80
2015,08,27,14,03,4.80
2015,08,27,14,04,3.20
2015,08,27,14,05,4.80
2015,08,27,14,06,6.40
2015,08,27,14,07,6.40
2015,08,27,14,08,6.40
2015,08,27,14,09,11.30
2015,08,27,14,10,3.20
2015,08,27,14,11,8.10
2015,08,27,14,12,1.60
2015,08,27,14,13,3.20
2015,08,27,14,14,8.10
2015,08,27,14,15,9.60
2015,08,27,14,16,9.60
2015,08,27,14,17,11.30
2015,08,27,14,18,9.60
2015,08,27,14,19,9.60
2015,08,27,14,20,9.60
2015,08,27,14,21,11.30
2015,08,27,14,22,11.30
2015,08,27,14,23,8.10
2015,08,27,14,24,9.60
2015,08,27,14,25,11.30
2015,08,27,14,26,6.40
2015,08,27,14,27,4.80
2015,08,27,14,28,8.10
2015,08,27,14,29,9.60
2015,08,27,14,30,11.30
2015,08,27,14,31,11.30
2015,08,27,14,32,11.30
2015,08,27,14,33,11.30
2015,08,27,14,34,11.30
2015,08,27,14,35,12.90
2015,08,27,14,36,8.10
2015,08,27,14,37,9.60
2015,08,27,14,38,8.10
2015,08,27,14,39,9.60
2015,08,27,14,40,9.60
2015,08,27,14,41,6.40
2015,08,27,14,42,8.10
2015,08,27,14,43,8.10
2015,08,27,14,44,8.10
2015,08,27,14,45,8.10
2015,08,27,14,46,8.10
2015,08,27,14,47,8.10
2015,08,27,14,48,6.40
2015,08,27,14,49,9.60
2015,08,27,14,50,9.60
2015,08,27,14,51,8.10
2015,08,27,14,52,6.40
2015,08,27,14,53,9.60
2015,08,27,14,54,4.80
2015,08,27,14,55,11.30
2015,08,27,14,56,9.60
2015,08,27,14,57,6.40
2015,08,27,14,58,9.60
2015,08,27,14,59,3.20
2015,08,27,15,00,1.60
2015,08,27,15,01,8.10
2015,08,27,15,02,6.40
2015,08,27,15,03,8.10
2015,08,27,15,04,4.80
2015,08,27,15,05,6.40
2015,08,27,15,06,6.40
2015,08,27,15,07,1.60
2015,08,27,15,09,6.40
2015,08,27,15,10,1.60
2015,08,27,15,11,8.10
2015,08,27,15,12,11.30
2015,08,27,15,13,6.40
2015,08,27,15,14,4.80
2015,08,27,15,15,6.40
2015,08,27,15,16,6.40
2015,08,27,15,17,4.80
2015,08,27,15,18,1.60
2015,08,27,15,19,9.60
2015,08,27,15,20,8.10
2015,08,27,15,21,6.40
2015,08,27,15,22,6.40
2015,08,27,15,23,4.80
2015,08,27,15,24,8.10
2015,08,27,15,25,8.10
2015,08,27,15,26,6.40
2015,08,27,15,27,8.10
2015,08,27,15,28,8.10
2015,08,27,15,29,8.10
2015,08,27,15,30,4.80
2015,08,27,15,31,4.80
2015,08,27,15,32,1.60
2015,08,27,15,33,1.60
2015,08,27,15,34,4.80
2015,08,27,15,35,1.60
2015,08,27,15,37,1.60
2015,08,27,15,38,1.60
2015,08,27,15,39,4.80
2015,08,27,15,40,4.80
2015,08,27,15,41,3.20
2015,08,27,15,42,1.60
2015,08,27,15,45,3.20
2015,08,27,15,46,4.80
2015,08,27,15,47,1.60
2015,08,27,15,48,1.60
2015,08,27,15,49,8.10
2015,08,27,15,50,11.30
2015,08,27,15,51,11.30
2015,08,27,15,52,3.20
2015,08,27,15,53,9.60
2015,08,27,15,54,8.10
2015,08,27,15,55,9.60
2015,08,27,15,56,9.60
2015,08,27,15,57,3.20
2015,08,27,15,58,6.40
2015,08,27,15,59,4.80
2015,08,27,16,00,8.10
2015,08,27,16,01,6.40
2015,08,27,16,02,6.40
2015,08,27,16,03,3.20
2015,08,27,16,04,3.20
2015,08,27,16,05,1.60
2015,08,27,16,07,1.60
2015,08,27,16,12,1.60
2015,08,27,16,15,1.60
2015,08,27,16,16,1.60
2015,08,27,16,17,1.60
2015,08,27,16,19,3.20
2015,08,27,16,20,3.20
2015,08,27,16,21,1.60
2015,08,27,16,22,1.60
2015,08,27,16,23,3.20
2015,08,27,16,24,8.10
2015,08,27,16,25,6.40
2015,08,27,16,26,3.20
2015,08,27,16,27,1.60
2015,08,27,16,29,1.60
2015,08,27,16,32,1.60
2015,08,27,16,33,4.80
2015,08,27,16,34,8.10
2015,08,27,16,35,3.20
2015,08,27,16,37,1.60
2015,08,27,16,38,1.60
2015,08,27,16,39,6.40
2015,08,27,16,40,6.40
2015,08,27,16,41,8.10
2015,08,27,16,42,8.10
2015,08,27,16,43,9.60
2015,08,27,16,44,8.10
2015,08,27,16,45,9.60
2015,08,27,16,46,9.60
2015,08,27,16,47,6.40
2015,08,27,16,48,9.60
2015,08,27,16,49,8.10
2015,08,27,16,52,1.60
2015,08,27,16,53,3.20
2015,08,27,16,54,4.80
2015,08,27,16,55,3.20
2015,08,27,16,56,3.20
2015,08,27,16,57,4.80
2015,08,27,16,58,3.20
2015,08,27,16,59,1.60
2015,08,27,17,00,6.40
2015,08,27,17,01,6.40
2015,08,27,17,02,8.10
2015,08,27,17,03,1.60
2015,08,27,17,04,4.80
2015,08,27,17,05,8.10
2015,08,27,17,06,11.30
2015,08,27,17,07,11.30
2015,08,27,17,08,11.30
2015,08,27,17,09,11.30
2015,08,27,17,10,8.10
2015,08,27,17,11,3.20
2015,08,27,17,12,4.80
2015,08,27,17,13,1.60
2015,08,27,17,14,4.80
2015,08,27,17,16,1.60
2015,08,27,17,17,1.60
2015,08,27,17,18,1.60
2015,08,27,17,19,4.80
2015,08,27,17,20,6.40
2015,08,27,17,21,1.60
2015,08,27,17,24,3.20
2015,08,27,17,25,1.60
2015,08,27,17,26,1.60
2015,08,27,17,28,1.60
2015,08,27,17,29,3.20
2015,08,27,17,30,1.60
2015,08,27,17,31,6.40
2015,08,27,17,32,3.20
2015,08,27,17,33,8.10
2015,08,27,17,34,3.20
2015,08,27,17,35,6.40
2015,08,27,17,36,1.60
2015,08,27,17,37,6.40
2015,08,27,17,38,3.20
2015,08,27,17,39,1.60
2015,08,27,17,40,1.60
2015,08,27,17,50,3.20
2015,08,27,17,51,3.20
2015,08,27,17,52,8.10
2015,08,27,17,53,6.40
2015,08,27,17,54,8.10
2015,08,27,17,55,9.60
2015,08,27,17,56,9.60
2015,08,27,17,57,6.40
2015,08,27,17,58,3.20
2015,08,27,17,59,1.60
2015,08,27,18,00,1.60
2015,08,27,18,01,1.60
2015,08,27,18,03,1.60
2015,08,27,18,09,1.60
2015,08,27,18,12,1.60
2015,08,27,18,16,1.60
2015,08,27,18,19,4.80
2015,08,27,18,20,1.60
2015,08,27,18,21,1.60
2015,08,27,18,22,6.40
2015,08,27,18,23,3.20
2015,08,27,18,24,1.60
2015,08,27,18,28,1.60
2015,08,27,18,31,1.60
2015,08,27,18,35,1.60
2015,08,27,18,36,4.80
2015,08,27,18,38,1.60
2015,08,27,18,39,1.60
2015,08,27,18,40,1.60
2015,08,27,18,41,3.20
2015,08,27,18,43,1.60
2015,08,27,18,44,1.60
2015,08,27,18,45,1.60
2015,08,27,18,46,1.60
2015,08,27,18,47,1.60
2015,08,27,18,48,1.60
2015,08,27,18,50,6.40
2015,08,27,18,51,1.60
2015,08,27,18,52,1.60
2015,08,27,18,53,1.60
2015,08,27,18,54,1.60
2015,08,27,18,55,6.40
2015,08,27,18,56,6.40
2015,08,27,18,57,6.40
2015,08,27,18,58,8.10
2015,08,27,18,59,6.40
2015,08,27,19,00,6.40
2015,08,27,19,01,4.80
2015,08,27,19,02,8.10
2015,08,27,19,03,6.40
2015,08,27,19,04,4.80
2015,08,27,19,05,1.60
2015,08,27,19,06,8.10
2015,08,27,19,07,6.40
2015,08,27,19,08,4.80
2015,08,27,19,09,3.20
2015,08,27,19,10,8.10
2015,08,27,19,11,6.40
2015,08,27,19,12,6.40
2015,08,27,19,13,4.80
2015,08,27,19,14,6.40
2015,08,27,19,15,1.60
2015,08,27,19,16,1.60
2015,08,27,19,17,4.80
2015,08,27,19,18,4.80
2015,08,27,19,20,1.60
2015,08,27,19,21,4.80
2015,08,27,19,24,1.60
2015,08,27,19,27,6.40
2015,08,27,19,30,6.40
2015,08,27,19,32,6.40
2015,08,27,19,33,6.40
2015,08,27,19,34,1.60
2015,08,27,19,35,1.60
2015,08,27,19,36,1.60
2015,08,27,19,38,4.80
2015,08,27,19,39,1.60
2015,08,27,19,40,4.80
2015,08,27,19,41,3.20
2015,08,27,19,42,1.60
2015,08,27,19,44,1.60
2015,08,27,19,45,8.10
2015,08,27,19,46,3.20
2015,08,27,19,47,1.60
2015,08,27,19,48,4.80
2015,08,27,19,49,3.20
2015,08,27,19,50,1.60
2015,08,27,19,51,4.80
2015,08,27,19,52,6.40
2015,08,27,19,53,4.80
2015,08,27,19,58,1.60
2015,08,27,20,06,1.60
2015,08,27,20,07,1.60
2015,08,27,20,08,3.20
2015,08,27,20,10,1.60
2015,08,27,20,14,3.20
2015,08,27,20,15,1.60
2015,08,27,20,16,1.60
2015,08,27,20,17,4.80
2015,08,27,20,18,3.20
2015,08,27,20,23,3.20
2015,08,27,20,24,3.20
2015,08,27,20,26,1.60
2015,08,27,20,27,3.20
2015,08,27,20,28,1.60
2015,08,27,20,29,1.60
2015,08,27,20,31,1.60
2015,08,27,20,32,1.60
2015,08,27,20,33,1.60
2015,08,27,20,36,4.80
2015,08,27,20,37,1.60
2015,08,27,20,38,4.80
2015,08,27,20,39,4.80
2015,08,27,20,40,3.20
2015,08,27,20,41,1.60
2015,08,27,20,45,1.60
2015,08,27,20,49,1.60
2015,08,27,21,05,1.60
2015,08,27,21,24,4.80
2015,08,27,21,25,4.80
2015,08,27,21,26,1.60
2015,08,27,21,45,1.60
2015,08,27,22,16,3.20
2015,08,27,22,17,3.20
2015,08,27,22,18,1.60
2015,08,27,22,24,1.60
2015,08,27,22,39,1.60
2015,08,27,22,43,3.20
2015,08,27,22,51,4.80
2015,08,27,22,52,4.80
2015,08,27,22,53,6.40
2015,08,27,22,54,6.40
2015,08,27,22,58,6.40
2015,08,27,22,59,1.60
2015,08,27,23,04,1.60
2015,08,27,23,11,1.60
2015,08,27,23,14,1.60
2015,08,27,23,15,1.60
2015,08,27,23,16,6.40
2015,08,27,23,17,6.40
2015,08,27,23,18,1.60
2015,08,27,23,19,6.40
2015,08,27,23,20,1.60
2015,08,27,23,22,6.40
2015,08,27,23,23,1.60
2015,08,27,23,25,6.40
2015,08,27,23,26,3.20
2015,08,27,23,29,1.60
2015,08,27,23,30,1.60
2015,08,27,23,35,1.60
2015,08,27,23,36,6.40
